This is the latest recevied weather packets stored in our database for station/object HB9FSE-WX. If no packets are shown the sender has not sent any weather packets the latest 10 day(s).
| Time | Temp. | Humidity | Pressure | Rain* | Wind** | Luminosity | Snow |
|---|---|---|---|---|---|---|---|
| 1778229695 | 22.78° C | 38% | 1016.4 hPa | - | - | - | - |
| 1778228795 | 22.78° C | 38% | 1016.4 hPa | - | - | - | - |
| 1778227895 | 22.78° C | 39% | 1016.5 hPa | - | - | - | - |
| 1778226995 | 22.78° C | 39% | 1016.3 hPa | - | - | - | - |
| 1778226095 | 22.78° C | 39% | 1016.3 hPa | - | - | - | - |
| 1778225195 | 22.22° C | 39% | 1016.4 hPa | - | - | - | - |
| 1778224295 | 22.22° C | 39% | 1016.2 hPa | - | - | - | - |
| 1778223395 | 22.22° C | 41% | 1016.3 hPa | - | - | - | - |
| 1778222495 | 22.22° C | 38% | 1016.4 hPa | - | - | - | - |
| 1778220710 | 22.22° C | 37% | 1016.3 hPa | - | - | - | - |
| 1778219810 | 21.67° C | 37% | 1016.2 hPa | - | - | - | - |
| 1778218910 | 21.67° C | 37% | 1016.1 hPa | - | - | - | - |
| 1778218010 | 21.11° C | 37% | 1016.2 hPa | - | - | - | - |
| 1778217109 | 20.56° C | 36% | 1016.1 hPa | - | - | - | - |
| 1778216209 | 21.11° C | 35% | 1016.1 hPa | - | - | - | - |
| 1778215309 | 21.67° C | 35% | 1015.9 hPa | - | - | - | - |
| 1778192795 | 22.78° C | 36% | 1015.8 hPa | - | - | - | - |
| 1778191895 | 22.78° C | 36% | 1015.7 hPa | - | - | - | - |
| 1778190994 | 22.78° C | 36% | 1015.8 hPa | - | - | - | - |
| 1778190094 | 22.78° C | 36% | 1015.8 hPa | - | - | - | - |
| 1778189194 | 23.33° C | 36% | 1015.7 hPa | - | - | - | - |
| 1778188294 | 23.33° C | 36% | 1015.7 hPa | - | - | - | - |
| 1778187394 | 23.33° C | 36% | 1015.7 hPa | - | - | - | - |
| 1778186494 | 23.33° C | 35% | 1015.6 hPa | - | - | - | - |
| 1778185594 | 23.33° C | 35% | 1015.5 hPa | - | - | - | - |
* Rain since midnight (hover to see other rain measurements)
** Current wind speed in m/s (hover to see current wind gust speed)